FENGYUN 1C DEB, 31389

Orbit data source: Space-Track

FENGYUN 1C DEB, 31389 is space debris in SSO originally from a launch on Mon, 10 May 1999 UTC launched from the Taiyaun Space Center, China (TSC). Fengyun 1C debris stems from the Chinese weather satellite Fengyun-1C, which was intentionally destroyed by a Chinese anti-satellite missile in 2007. This event dramatically increased the amount of space debris, with thousands of trackable fragments posing hazards to satellites and human spaceflight. The Fengyun 1C debris cloud has become a focal point in discussions about space sustainability and the need for international regulations to prevent the creation of new debris.

Loading next visibility...
Identifier
31389, 1999-025BSV
Orbit
SSO
Country
Flag of CNCN / PRC
Related business
Manufacturer
Unknown
Mission
Spacecraft
Bus & Motor
Unknown
Mass
Unknown
Launch date (UTC)
1999-05-10 (27 years ago)
Launch vehicle
Unknown
Launch site
Taiyaun Space Center, China (TSC)
Object type
Payload
Rocket body
Debris
Shape & HBR
Unknown shape, 0.1 m
Radar Cross Section
Medium (>0.1 m² and <1 m²)

Expand to show TLE details & history
Last TLE update: 3 days ago

TLE from 3 days ago
0 FENGYUN 1C DEB
1 31389U 99025BSV 26167.47298212  .00014434  00000-0  24095-2 0  9994
2 31389  99.0419 356.4667 0024556 339.0942  80.7278 14.69848417992180
Epoch: 2026-06-16T11:21Z
TLE epoch observation values (Epoch: 2026-06-16T11:21:05.655Z)
Latitude
58.98439°
Longitude
-93.81448°
Altitude
668.766 km
Speed
7.53 km/s
True Right ascension
22h 44m 48s
True Declination
58° 49' 49"
Sunlit
Object was in daylight at epoch
Visualization orbit readout
Latitude
Unknown
Longitude
Unknown
Altitude
Unknown
Speed
Unknown
Apparent Right ascension
Unknown
Apparent Declination
Unknown
Sunlit
N/A
Visualization observer readout
Local Sidereal Time
14:45:23
Azimuth
Unknown
Elevation
Unknown
Doppler factor
Unknown
Orbital elements
Apogee altitude
675.94 km
Perigee altitude
641.381 km
Semi-major axis
7,036.798 km
Eccentricity
0.00246
Inclination
99.0419°
RAAN
356.4667°
Arg. of periapsis
339.0942°
True anomaly
81.00565°
Mean anomaly
80.7278°
Eccentric anomaly
80.86671°
Mean motion
3.67689 °/min
Orbital period
97.91 mins
BSTAR
0.0024095
Loading maneuver chart data...
Computing Atmospheric mass density...

Documentation

Showing up to 5 results
|